Theta_e
288 288 288 288 287 287 287 287 287 287 287 287 287 287 287 286 286 285 285 284 284 283 283 282 282 281 281 281 281 281 280 280 281 281 281 280 280 280 280 279 279 279 279 279 279 279 279 279 279 280 280 279 279 280 280 280 280 280 281 281 281 282 282 282 282 282 282 282 282 283 283 283 283 283 283 284 284 284 284 284 284 284 284 284 285
288 287 287 287 287 287 287 287 287 287 287 287 287 287 286 286 285 285 284 284 283 283 282 282 282 281 281 281 280 280 280 280 280 280 280 280 279 279 279 278 278 278 278 278 278 278 278 278 278 279 278 278 278 278 279 279 279 279 279 279 280 280 280 280 281 281 281 282 282 282 282 282 282 282 283 283 283 283 283 283 283 284 284 284 285
287 287 287 287 287 286 287 287 287 287 287 287 287 286 286 285 285 284 284 283 283 283 282 282 281 281 280 280 280 280 280 280 280 280 280 279 279 278 278 278 278 278 278 278 277 277 277 277 278 278 277 277 277 278 278 278 278 278 278 278 278 279 279 279 280 280 280 281 281 280 281 281 281 281 281 281 282 282 282 282 282 283 283 283 284
287 287 287 286 286 286 286 286 287 286 287 287 287 286 286 285 285 284 283 283 283 282 282 281 281 280 280 280 279 279 279 279 279 279 279 279 278 278 278 277 277 277 277 277 277 277 277 277 277 277 276 276 277 277 277 277 277 277 277 277 278 278 278 278 279 279 279 279 279 279 279 279 279 279 280 280 280 280 281 281 281 282 282 282 283
287 286 286 286 286 286 286 286 286 286 287 287 286 286 285 285 284 284 283 283 282 282 281 281 280 280 280 279 279 279 279 279 279 279 279 278 278 278 277 277 276 276 276 276 276 276 276 276 276 276 276 276 276 276 276 276 276 276 276 276 277 277 277 277 277 277 277 277 278 278 278 277 278 278 278 279 279 279 279 280 280 281 282 282 283
287 286 286 286 286 285 285 286 286 286 287 287 286 285 285 285 284 284 283 283 282 282 281 281 280 280 279 279 279 279 279 279 279 278 278 278 277 277 276 276 276 276 276 276 276 276 276 276 275 275 275 275 275 275 275 275 275 275 275 275 275 275 275 276 276 276 276 276 276 276 276 276 277 277 277 278 278 278 279 279 280 280 281 281 281
286 286 286 286 285 285 285 286 286 286 287 287 286 285 285 284 284 283 283 283 282 282 282 281 280 279 279 279 279 279 279 279 278 278 278 277 277 276 276 276 276 276 276 276 276 275 275 275 275 275 275 275 275 274 274 274 274 274 274 274 274 274 274 274 274 274 274 275 275 275 275 275 276 276 277 277 277 277 278 278 278 278 278 279 279
286 286 286 286 285 285 285 285 286 287 287 286 286 285 285 284 284 283 283 283 283 282 281 281 280 279 279 279 278 278 278 278 278 278 277 277 276 276 276 275 275 275 275 275 275 275 275 275 275 275 275 274 274 273 273 273 273 274 274 274 273 273 273 273 274 274 274 274 274 274 275 275 275 275 276 276 276 276 277 277 277 277 277 278 278
286 286 286 286 285 285 285 286 286 287 287 286 285 285 284 284 284 284 283 283 283 282 281 280 279 279 279 278 278 278 278 278 278 277 277 276 276 276 276 275 274 274 274 274 275 275 275 275 275 274 274 273 273 272 273 273 273 273 273 273 273 273 273 273 273 273 273 273 274 274 274 274 274 275 275 275 275 275 276 276 276 276 276 277 277
286 286 286 286 285 285 286 286 286 287 286 286 285 285 284 284 284 283 283 283 282 282 281 280 279 279 278 278 278 278 278 278 277 277 276 276 275 275 275 274 273 273 274 274 274 274 275 274 274 273 273 272 272 272 273 273 273 273 273 273 273 273 273 273 273 273 273 273 273 274 274 274 274 274 274 275 275 275 275 275 276 276 276 276 276
286 286 286 286 285 285 286 286 286 287 286 286 285 285 284 284 284 283 283 282 282 281 281 280 279 278 278 278 278 278 277 277 277 277 276 275 275 274 274 273 272 273 273 274 274 274 274 274 273 273 272 272 272 272 272 272 273 273 273 273 273 273 273 273 273 273 273 273 274 274 274 274 274 274 274 275 275 275 275 275 276 276 276 276 276
286 286 286 286 285 285 286 286 286 286 286 286 285 285 285 284 283 283 282 282 282 281 280 279 279 278 278 278 278 277 277 277 276 276 276 275 274 274 273 272 272 273 273 273 273 273 273 273 272 272 272 272 272 272 272 272 272 272 273 273 273 273 273 273 273 274 274 274 274 274 274 274 274 275 275 275 275 275 275 275 276 276 276 276 277
286 286 286 286 285 286 286 286 286 286 286 286 285 285 284 284 283 282 282 282 281 281 280 279 278 278 277 277 277 277 277 277 276 276 275 275 274 274 273 273 272 273 273 273 273 273 272 272 272 271 271 271 271 271 271 272 272 272 272 272 272 272 273 273 274 274 274 274 275 275 275 275 275 275 275 275 275 275 275 276 276 276 276 276 277
286 286 286 286 286 286 286 286 286 286 286 285 285 285 284 283 283 282 282 282 281 280 279 279 278 277 277 277 277 277 277 276 276 276 275 275 274 273 273 272 272 272 272 272 272 272 271 271 271 271 271 271 271 271 271 272 272 272 272 272 272 273 273 273 274 274 274 274 275 275 275 275 275 275 275 275 275 275 276 276 276 276 277 277 277
286 286 286 286 286 286 286 286 286 286 286 285 285 284 284 283 282 282 282 281 280 279 279 278 278 277 277 276 276 276 276 276 275 275 275 274 274 273 272 272 271 271 271 271 271 271 271 271 271 271 271 271 271 271 272 272 273 273 273 273 273 273 274 274 274 274 274 274 275 275 275 275 275 275 276 276 276 276 276 277 277 277 277 277 277
286 286 286 286 287 286 286 286 286 286 285 285 285 284 284 283 282 281 281 280 280 279 279 278 277 277 276 276 276 276 276 275 275 275 274 274 273 273 272 271 270 270 271 271 271 271 271 271 271 271 271 271 272 272 273 273 274 274 274 274 275 275 275 275 275 275 275 275 275 275 276 276 276 276 277 277 277 277 277 277 277 277 277 277 276
286 286 286 287 287 286 286 287 287 286 285 285 285 285 284 282 281 281 281 280 280 279 279 278 277 276 276 276 275 275 276 275 275 274 274 273 273 272 271 270 270 270 271 271 271 271 271 271 271 271 272 272 272 273 274 275 275 275 275 275 275 276 276 275 276 276 276 276 276 276 276 276 277 277 277 277 277 277 277 277 277 277 276 276 276
286 286 287 287 287 286 287 287 287 286 285 285 285 284 283 282 281 281 281 280 280 279 278 277 277 276 275 275 275 275 275 275 274 274 273 273 272 271 270 270 270 271 271 271 271 271 271 271 272 272 272 273 273 274 275 276 276 276 276 276 276 276 276 276 276 276 276 276 276 276 276 276 276 276 276 277 276 276 277 277 276 276 276 276 276
287 287 287 287 287 287 287 287 287 286 286 285 285 284 283 281 280 281 280 280 279 278 278 277 276 275 275 275 275 274 275 274 274 273 273 273 272 271 270 270 271 271 271 271 271 272 272 272 273 273 273 274 274 275 275 275 276 276 276 276 276 276 276 276 276 276 276 276 275 275 275 275 275 275 275 275 276 276 276 276 276 276 276 276 276
288 287 287 287 287 287 287 287 286 286 285 285 284 283 282 280 280 280 280 279 278 278 277 276 275 275 275 275 274 274 274 274 274 273 273 272 272 271 270 270 271 271 271 272 272 272 273 273 273 274 274 275 275 275 275 275 275 275 275 275 275 274 274 275 275 275 274 274 273 273 273 273 274 274 274 275 275 275 275 275 275 275 275 275 275
288 287 287 286 286 286 287 287 286 285 285 284 283 282 281 279 279 279 278 278 278 277 276 276 275 274 274 274 274 274 273 273 273 273 272 272 272 271 270 271 271 271 272 272 273 273 273 273 274 274 274 274 274 274 274 274 274 274 274 273 273 273 274 273 273 273 272 272 272 272 272 272 273 273 274 274 274 274 274 274 274 274 274 274 275
288 287 286 286 286 286 286 286 285 284 283 283 282 281 280 279 278 277 277 277 277 276 276 275 274 274 274 274 274 273 273 273 273 272 272 272 272 271 270 271 272 272 273 273 273 273 273 273 273 273 273 273 273 273 273 273 273 272 272 272 272 272 272 271 271 270 270 270 271 271 271 272 272 272 273 273 273 273 273 273 273 273 273 273 273
288 286 286 285 285 285 285 285 284 283 282 282 281 280 279 278 277 276 276 276 275 275 275 275 274 273 273 273 273 273 273 272 272 272 272 272 271 271 271 272 272 273 273 273 273 273 273 273 272 272 272 272 272 272 272 271 271 271 271 271 271 270 269 269 269 269 269 269 269 270 270 270 271 271 272 272 272 272 273 273 273 273 273 273 273
286 285 285 284 284 284 284 283 282 282 281 281 280 279 277 276 275 275 275 274 274 274 274 273 273 272 272 272 272 272 272 272 272 272 272 271 270 270 271 272 272 273 273 273 274 273 273 272 272 272 272 271 271 270 270 270 269 269 270 270 269 268 267 267 267 267 268 268 268 269 269 269 270 270 271 271 271 271 272 272 272 272 272 272 272
285 285 284 284 283 283 282 281 281 280 280 279 279 278 276 275 274 274 274 274 274 274 273 272 271 271 270 270 271 271 271 271 271 271 271 270 270 270 271 272 272 273 273 273 273 273 272 272 271 271 270 270 269 269 269 269 268 268 268 268 267 266 266 266 266 266 266 267 267 268 268 268 269 269 269 270 270 270 271 271 271 271 272 272 272
285 284 284 283 282 282 281 280 279 278 278 278 277 276 275 274 273 273 273 273 273 273 272 271 270 270 270 270 270 270 269 269 270 270 270 270 270 270 271 271 272 273 273 273 273 272 271 271 270 269 269 269 268 268 267 267 267 267 267 267 266 265 265 265 265 266 266 266 266 267 267 267 267 268 268 268 269 269 270 271 271 272 272 272 273
284 283 282 281 280 280 279 278 277 277 276 276 276 275 275 274 273 272 273 273 273 272 272 271 270 270 269 269 269 269 269 269 269 269 270 270 270 270 271 271 272 272 273 272 272 271 270 270 269 268 268 268 268 268 267 266 266 266 266 266 265 265 265 265 265 265 265 266 266 266 266 266 266 267 267 267 268 269 269 270 271 272 272 272 273
283 282 281 280 279 278 277 276 276 275 275 275 275 274 274 274 273 273 274 274 273 272 271 270 270 270 269 268 268 268 268 268 269 269 269 270 270 271 271 271 272 272 272 272 271 270 270 269 268 268 268 268 267 267 266 266 266 266 265 265 265 265 265 265 265 265 265 265 265 265 266 266 266 266 267 267 268 269 269 270 270 271 271 272 273
282 280 279 278 277 276 275 274 274 274 274 274 274 274 274 274 274 274 274 274 273 272 271 270 270 270 269 269 268 268 268 268 269 269 270 270 271 272 272 271 272 272 272 271 271 270 269 268 267 267 267 266 266 266 266 266 265 265 265 265 265 265 265 265 265 265 265 265 265 265 265 266 266 266 267 267 268 268 269 269 270 270 270 271 272
280 279 278 277 276 275 274 273 273 273 272 273 273 273 274 274 274 273 273 273 273 272 271 270 270 270 269 269 269 268 268 269 269 270 271 271 271 272 272 272 272 273 272 271 270 269 268 267 266 266 266 266 265 265 265 265 265 265 265 265 265 265 265 265 265 265 265 265 265 265 266 266 266 267 267 267 268 268 268 268 269 269 270 270 271
279 278 277 276 275 274 273 272 272 272 271 272 272 272 272 273 273 273 273 272 272 271 271 270 269 269 269 269 269 269 269 269 270 271 271 271 271 271 271 272 272 272 271 270 269 268 267 266 266 266 266 265 265 265 265 264 264 264 264 264 264 264 264 264 265 265 265 265 265 265 266 266 267 267 267 267 267 267 268 268 268 268 269 269 270
278 277 276 275 274 273 272 271 271 271 271 271 271 271 271 271 271 272 272 271 270 270 270 269 269 269 270 270 270 270 270 270 270 271 271 271 271 271 271 272 272 271 270 269 268 267 266 265 265 265 265 265 265 264 264 264 264 264 264 264 264 264 264 264 264 264 264 265 265 266 266 267 267 267 267 267 267 267 267 267 268 268 268 269 269
277 277 275 274 273 272 271 271 270 271 271 270 270 270 270 269 269 270 270 270 269 269 269 268 268 269 269 269 270 270 270 270 270 270 270 270 270 270 271 271 271 270 269 269 267 266 265 265 265 265 264 264 264 264 263 263 263 263 263 263 263 264 264 264 264 264 265 265 266 266 266 267 267 267 267 267 267 267 267 267 267 268 268 268 269
276 275 274 274 273 272 271 271 270 270 270 270 270 270 269 269 269 268 268 268 268 268 268 268 268 268 268 268 269 269 269 269 269 269 269 269 270 270 270 270 270 269 268 268 266 265 265 265 264 264 264 264 264 263 263 263 263 263 263 263 263 263 263 263 264 264 265 266 266 266 266 267 267 267 267 267 267 267 267 267 267 268 268 268 269
274 274 273 273 273 272 271 270 270 270 270 269 269 269 268 268 267 267 267 266 266 267 267 267 267 267 267 267 267 267 267 267 267 268 268 269 269 270 270 269 268 267 267 266 265 265 264 264 264 264 264 263 263 263 263 263 263 263 263 263 263 263 263 263 263 264 265 265 266 266 266 267 267 267 267 267 267 267 267 267 267 267 268 268 269
273 272 272 271 271 271 270 270 269 269 269 268 268 268 267 267 266 266 265 265 265 266 266 266 267 267 267 267 267 266 266 266 267 267 267 268 269 269 268 268 267 266 265 265 264 264 264 264 264 264 264 263 263 263 263 262 263 263 263 262 262 262 262 262 263 264 265 265 266 266 266 266 267 267 267 267 267 267 267 267 267 267 268 268 269
272 271 270 270 270 269 269 268 268 268 268 268 267 267 266 265 265 265 264 264 264 264 264 265 266 266 266 266 266 266 266 266 266 266 266 267 268 268 267 267 266 265 264 264 264 264 264 264 264 263 263 263 263 263 262 262 262 262 262 262 262 262 262 262 263 264 264 265 265 266 266 266 266 266 266 266 266 266 267 267 267 267 268 268 269
270 269 269 269 269 268 268 267 267 267 267 266 266 265 265 264 264 263 263 263 262 262 263 263 264 265 266 265 265 265 265 265 265 265 266 266 267 266 266 266 265 264 264 264 263 263 264 264 263 263 263 263 263 262 262 262 262 262 262 262 262 262 262 262 263 263 264 265 265 265 266 266 266 266 266 266 266 266 267 267 267 267 268 268 268
268 267 267 268 268 267 267 267 266 266 266 265 265 264 263 263 263 262 262 262 262 262 262 262 262 264 265 265 264 264 264 264 264 264 265 266 266 265 264 264 264 264 263 263 263 263 263 263 263 263 263 263 263 262 262 262 262 262 262 261 261 262 262 262 262 263 264 264 265 265 265 266 266 266 266 266 266 266 267 267 267 267 267 268 268
266 266 266 267 267 266 266 266 266 265 265 264 264 263 262 262 261 261 261 261 261 261 261 261 261 262 263 264 263 263 263 263 263 264 264 265 264 264 263 263 263 263 263 263 263 263 263 263 263 263 263 263 263 262 262 262 262 262 262 261 261 261 261 262 262 262 263 264 264 265 265 265 266 266 266 266 266 266 266 266 267 267 267 267 268
266 266 266 266 266 265 265 265 265 264 263 263 262 262 261 261 261 261 261 261 260 260 260 260 261 262 263 263 262 262 262 261 262 263 263 263 263 263 263 263 263 263 263 263 263 263 263 263 263 263 263 263 263 262 262 262 262 262 262 261 261 261 261 261 262 262 262 263 264 264 265 265 265 265 265 265 265 266 266 266 266 266 267 267 267
267 267 266 265 265 264 264 263 263 263 262 262 261 261 261 260 260 260 260 260 260 260 259 259 260 261 262 262 262 262 262 262 262 262 262 262 262 262 262 263 263 263 262 262 262 262 263 263 263 263 263 263 263 262 262 262 262 261 261 261 261 261 261 261 261 262 262 263 264 264 264 265 265 265 265 265 265 265 265 265 266 266 267 267 267
266 266 265 264 264 263 263 262 262 262 261 261 261 260 260 260 260 259 259 259 259 259 259 259 259 260 261 261 261 261 261 262 261 261 261 262 262 262 262 263 262 262 262 262 262 262 262 262 262 263 263 263 262 262 262 262 261 261 261 261 261 261 261 261 261 261 261 262 263 263 264 264 265 265 265 264 264 264 265 265 265 266 266 267 267
265 265 264 264 263 262 262 262 261 261 261 260 260 260 260 259 259 259 258 258 258 258 258 259 259 259 260 261 261 260 261 261 261 261 261 261 262 262 262 262 262 262 262 262 262 262 262 262 262 262 262 262 262 262 262 261 261 261 261 261 261 261 261 261 261 261 261 261 262 263 263 264 264 265 265 264 264 264 264 265 265 265 266 266 266
264 264 263 263 262 262 261 261 261 260 260 260 260 260 259 259 259 258 258 258 258 258 258 259 259 259 260 260 260 260 261 261 261 261 261 261 261 262 262 262 262 262 262 262 262 262 262 262 262 262 262 262 262 261 261 261 261 261 261 261 261 261 261 261 261 261 261 261 262 262 263 263 264 264 264 264 264 264 264 264 265 265 265 265 266
263 263 262 262 261 261 261 260 260 260 260 259 259 259 259 259 259 259 258 258 258 258 258 259 259 259 259 260 260 260 260 260 261 261 261 261 261 261 262 262 261 261 262 261 261 261 261 261 261 261 261 261 261 261 261 261 261 261 261 261 261 261 261 261 261 261 261 262 262 262 263 263 264 264 264 264 264 264 264 264 264 265 265 265 265
262 262 261 261 261 260 260 260 260 259 259 259 259 259 259 259 259 259 259 259 259 259 259 259 259 259 259 260 260 260 260 260 260 260 260 261 261 261 261 261 261 261 261 261 261 261 261 261 261 261 261 261 261 261 261 262 262 262 261 261 261 261 261 261 260 260 261 261 262 262 263 263 263 264 264 264 264 264 264 264 264 264 264 265 265
261 261 260 260 260 260 260 260 260 259 259 259 259 259 259 259 259 259 259 259 259 259 259 259 259 260 260 260 260 260 260 260 260 260 260 261 261 261 261 261 261 261 261 261 261 261 261 261 261 261 261 261 261 261 261 261 261 261 261 261 261 261 261 261 260 260 261 261 262 263 263 263 263 264 264 264 264 264 264 264 264 264 264 264 265
260 260 260 260 260 260 260 259 259 259 259 259 258 258 258 258 259 259 259 259 259 259 260 260 260 260 260 260 260 260 260 260 260 260 260 261 261 261 261 261 261 261 261 261 261 261 261 261 261 261 260 260 260 260 260 261 261 261 261 261 261 261 261 261 261 261 261 262 262 263 263 263 263 264 264 264 264 264 264 264 264 264 264 264 264
260 260 260 260 260 259 259 259 259 259 258 258 258 258 258 258 258 259 259 259 259 259 260 260 260 260 260 260 260 260 260 260 260 261 261 261 261 261 261 261 261 261 261 261 261 261 261 261 260 260 260 260 260 260 260 260 260 260 260 261 261 261 261 261 261 261 261 262 262 262 262 263 263 264 264 264 264 264 264 264 264 264 264 264 264
260 259 259 259 259 259 259 259 259 258 258 258 258 258 258 258 258 259 259 259 259 259 260 260 260 260 260 260 261 261 261 261 261 261 261 261 261 261 261 261 261 261 261 261 261 261 261 260 260 260 260 260 260 260 260 260 260 260 260 260 260 261 261 261 261 261 261 261 261 261 262 263 263 264 264 264 265 265 264 264 264 264 264 264 264
Wind_Speed
26 26 24 23 22 20 18 17 15 14 12 11 10 9 8 7 7 7 7 7 7 7 7 7 8 8 9 9 10 11 11 12 13 13 13 13 13 13 14 14 15 14 13 13 12 13 14 13 12 12 12 13 14 13 13 14 14 14 14 14 16 15 15 18 16 20 31 31 28 27 22 22 26 23 23 27 28 26 27 28 28 28 30 31 32
26 25 24 23 21 19 17 16 14 12 10 9 8 7 7 6 6 6 6 6 6 7 7 8 8 9 9 10 10 11 12 12 13 13 13 13 13 13 13 14 14 13 13 13 13 14 14 13 11 11 13 14 14 13 13 13 13 14 14 14 16 16 15 18 19 19 27 32 30 27 23 20 24 23 21 25 28 28 28 29 28 28 28 28 29
26 26 25 22 21 19 17 15 13 11 9 8 7 6 5 5 5 5 5 5 6 7 7 8 8 9 9 10 11 11 12 12 12 12 13 13 13 13 13 13 13 13 13 13 13 14 14 12 11 12 13 14 13 12 12 12 13 14 15 15 15 17 16 15 18 19 23 30 31 28 24 20 22 25 24 24 26 27 27 28 28 28 28 28 29
27 27 25 23 21 18 16 14 13 11 9 7 6 5 4 4 4 4 4 4 5 6 7 8 8 9 10 11 11 12 12 12 12 12 12 12 12 13 13 12 12 12 13 13 13 13 13 12 12 13 14 13 13 13 12 12 14 14 16 16 15 16 17 15 17 19 21 27 30 28 24 22 23 26 25 24 25 24 25 26 28 28 29 29 28
28 27 25 23 21 18 16 15 13 12 10 8 7 6 4 3 3 2 3 4 5 6 8 9 9 10 10 11 11 12 12 12 12 12 12 12 12 13 12 12 13 13 14 13 12 13 13 12 13 13 12 12 13 13 13 14 16 16 15 16 15 16 17 16 17 18 20 25 29 29 26 23 23 24 24 24 25 25 24 25 26 26 27 26 26
28 27 24 22 20 17 17 17 14 13 11 9 8 6 5 3 2 1 2 4 5 7 8 9 10 10 10 11 11 11 11 11 11 11 12 12 12 12 12 13 13 14 14 13 13 14 13 12 13 12 11 12 13 13 15 16 16 16 15 16 16 16 17 17 17 18 20 23 26 28 27 24 22 23 23 23 25 25 24 24 23 22 23 26 27
28 25 22 21 19 18 19 18 16 14 11 10 9 7 5 4 2 0 2 4 5 7 8 9 9 9 10 10 10 11 11 11 11 11 12 12 12 12 13 13 14 15 15 14 13 13 13 13 14 13 11 12 13 15 18 17 16 15 15 15 16 16 17 17 17 18 20 21 23 25 26 24 22 22 23 23 24 24 23 24 24 23 23 26 27
28 25 22 20 20 20 21 19 17 15 13 12 10 8 7 4 2 1 2 4 5 7 8 9 9 10 10 10 10 11 11 11 11 12 12 12 13 13 14 14 15 15 15 15 14 13 14 14 14 13 12 14 17 19 19 17 15 15 14 14 15 16 17 17 18 18 19 20 22 22 24 24 22 22 23 24 23 21 20 22 24 25 25 25 25
27 25 23 21 21 23 23 21 19 16 15 13 12 10 8 5 3 2 3 4 5 7 8 9 9 10 10 10 10 11 11 11 11 12 12 13 14 14 14 14 14 15 15 15 15 14 14 14 13 14 16 20 21 20 17 15 14 15 15 14 15 16 17 17 18 19 19 20 21 22 22 22 21 21 23 22 22 22 22 22 23 23 24 25 25
27 25 23 22 23 25 24 22 20 18 17 15 13 11 8 6 4 3 3 4 5 7 8 9 9 10 10 10 10 10 11 11 11 11 12 12 13 14 14 15 15 15 14 15 15 14 14 15 15 16 19 21 20 17 16 15 15 16 16 15 15 16 17 19 18 19 19 20 20 20 21 22 21 21 23 23 23 23 22 21 22 23 24 24 23
28 26 24 24 26 27 25 23 21 20 19 17 14 12 9 7 6 5 4 4 5 6 8 9 9 10 10 10 10 11 11 11 11 11 11 11 12 14 14 15 16 15 13 13 14 15 15 16 18 19 19 18 17 16 16 16 16 17 17 16 16 17 18 20 19 19 20 20 21 21 21 23 24 23 23 24 24 22 21 21 22 23 22 20 20
28 26 25 27 28 28 26 25 23 22 20 18 15 12 10 9 8 6 5 5 6 7 8 9 10 10 11 10 11 11 11 11 11 12 12 11 11 13 14 15 15 14 13 13 14 15 16 17 18 19 18 16 16 17 17 17 17 17 18 18 18 17 18 20 22 22 22 23 23 22 23 25 26 25 24 24 24 24 24 23 23 23 23 22 22
28 27 28 30 30 28 27 27 26 24 21 19 16 13 12 11 9 7 6 6 8 8 9 9 10 11 11 11 11 11 11 12 12 12 12 12 12 13 14 15 14 13 13 13 14 14 16 17 17 18 17 16 16 16 17 17 17 18 18 18 17 18 19 21 24 26 27 27 27 26 26 26 27 26 25 26 27 28 26 25 24 24 24 23 24
29 30 31 31 30 29 29 29 28 25 22 20 17 15 14 12 10 9 8 8 9 9 10 10 10 11 12 12 12 12 11 12 13 13 13 13 13 13 14 15 14 14 15 15 14 14 14 15 17 18 17 16 16 16 17 18 19 19 20 20 22 24 25 26 28 27 28 29 29 29 29 28 29 30 29 29 30 29 27 26 26 25 25 26 28
31 32 32 31 31 31 31 31 29 26 23 21 19 17 15 14 12 11 10 10 10 10 11 11 11 11 12 13 13 12 12 12 13 13 13 13 13 13 15 16 16 16 16 15 14 13 13 14 16 17 18 17 17 18 19 19 20 23 26 28 30 31 32 33 32 28 28 29 29 31 32 33 33 33 32 31 31 31 31 32 31 29 30 31 30
33 33 33 33 33 34 33 32 30 28 25 23 20 19 17 16 14 13 12 12 11 11 11 12 11 12 12 13 14 13 11 11 13 14 13 13 13 14 16 17 16 16 15 13 13 12 12 13 15 16 17 18 19 19 20 21 23 27 30 31 32 34 34 35 33 30 31 33 33 33 36 37 36 35 34 34 33 33 33 32 29 27 28 27 25
35 35 35 36 36 36 34 33 31 30 27 24 22 21 19 18 16 14 13 12 12 12 12 12 12 12 13 13 14 14 12 11 13 14 13 13 13 14 15 15 14 13 13 12 13 12 12 13 15 17 18 20 21 21 22 24 26 28 30 31 32 34 34 35 34 32 33 35 35 34 36 36 36 36 35 33 32 31 30 28 25 25 24 19 17
37 38 39 39 39 37 35 34 33 31 29 26 24 22 21 19 17 15 13 13 13 13 13 14 13 12 13 13 14 15 13 11 12 13 13 12 12 13 14 13 11 12 12 12 12 13 14 15 17 18 20 21 22 23 23 25 27 29 30 32 33 32 31 30 30 30 30 32 31 30 30 31 31 31 30 29 29 29 29 28 26 26 23 18 17
40 41 42 42 40 37 36 35 35 32 30 28 25 23 22 20 17 15 14 14 14 13 14 14 14 13 13 14 14 15 15 13 12 13 13 12 12 12 12 12 11 12 12 12 13 14 14 16 17 18 20 20 22 24 25 26 28 30 31 31 30 28 27 27 29 30 29 26 24 24 27 29 30 30 30 29 29 28 28 28 27 25 23 21 21
42 43 43 41 40 38 37 37 36 33 31 28 25 23 22 21 18 16 15 14 14 14 14 15 15 14 13 14 14 15 16 15 13 12 12 12 11 11 11 11 12 12 12 13 15 15 15 16 17 17 18 21 23 25 26 27 29 31 31 29 28 28 30 31 31 29 25 24 25 29 32 33 32 31 30 29 28 27 26 24 24 24 23 23 24
42 42 41 40 40 39 38 37 36 34 31 28 25 24 23 21 19 17 15 15 14 14 14 15 16 15 14 14 14 14 15 15 14 13 12 12 11 10 11 11 12 12 14 15 15 16 17 16 15 16 20 23 25 27 28 28 29 29 28 26 27 29 30 30 29 27 26 28 30 30 30 29 27 25 25 25 25 24 23 22 21 21 21 22 23
39 40 40 40 40 39 39 38 36 34 32 29 27 25 24 22 20 17 16 15 14 14 14 15 16 16 15 14 15 14 14 15 15 14 12 12 11 10 11 11 12 13 15 16 16 17 16 14 15 18 22 24 26 28 28 29 28 26 24 24 25 26 26 27 27 26 25 25 24 23 24 23 22 22 22 22 22 21 21 21 20 20 21 22 23
37 38 38 39 39 39 38 37 36 34 32 29 27 26 24 23 20 18 16 16 14 14 14 15 16 16 16 15 15 14 14 13 13 14 13 11 9 9 11 12 12 13 15 17 17 16 13 13 17 20 23 25 27 28 27 26 24 21 21 22 23 23 22 22 21 20 20 20 19 20 20 19 19 20 20 20 20 20 21 21 21 22 23 23 24
34 36 37 37 38 38 37 36 35 34 32 30 27 26 25 22 20 18 17 15 14 14 14 14 15 15 15 16 15 15 14 13 12 12 11 10 8 9 11 11 11 13 15 17 16 14 15 18 20 21 24 26 26 26 25 23 20 19 19 20 20 19 18 17 17 17 18 18 18 18 19 18 18 19 20 20 22 23 23 24 24 25 25 26 26
34 35 36 37 37 37 36 35 34 33 32 30 28 26 25 22 20 19 17 16 15 14 13 13 14 15 15 15 15 14 13 12 12 11 10 9 8 9 10 11 11 13 14 15 14 14 17 20 20 22 25 24 23 24 23 20 17 17 17 17 18 18 16 16 16 16 17 17 18 18 19 19 19 20 21 22 24 24 24 24 24 25 26 27 28
34 35 36 36 36 36 35 34 34 32 31 29 27 26 24 22 20 19 17 16 15 14 14 14 14 15 15 15 15 13 12 11 11 10 9 8 7 7 9 10 11 12 13 14 15 16 18 20 21 23 23 21 20 20 18 17 16 16 16 16 17 17 16 15 16 16 17 18 19 19 20 21 21 22 22 22 22 22 22 22 23 24 24 24 25
33 34 34 34 34 34 34 34 33 32 31 29 27 26 25 23 21 20 19 17 16 15 15 15 15 15 15 14 13 12 11 11 11 9 8 7 6 7 8 9 10 11 12 14 15 17 19 22 23 23 21 20 19 17 15 15 16 16 17 17 17 16 15 15 16 16 17 18 19 20 21 22 22 22 21 21 21 20 20 21 22 23 23 24 24
32 32 32 31 32 33 33 33 32 31 30 29 28 27 26 24 23 22 20 18 17 17 16 17 17 16 15 13 12 11 11 11 11 9 8 8 8 8 8 9 10 11 11 11 13 16 20 23 24 22 20 19 18 16 14 15 15 15 17 18 16 16 15 15 15 16 16 17 19 21 22 22 22 22 21 21 21 21 21 21 22 22 23 23 22
30 29 29 30 31 31 31 31 30 29 29 29 29 27 26 24 23 22 20 19 18 18 18 18 18 17 16 15 14 12 12 11 11 10 10 10 10 11 11 11 12 12 10 9 12 16 20 21 20 18 17 16 16 15 15 15 15 16 16 16 16 16 15 15 16 16 16 17 18 20 21 22 22 22 21 21 22 22 22 21 21 22 22 22 21
27 28 28 29 30 30 30 30 30 29 28 28 27 26 24 23 22 22 21 19 18 18 18 19 18 17 16 16 15 14 15 14 13 12 12 13 13 13 13 13 14 13 10 9 12 17 19 18 17 15 15 14 14 14 14 15 16 17 17 16 16 16 15 16 16 16 17 17 18 19 20 21 21 22 22 22 23 23 22 21 21 21 21 20 21
27 28 29 30 30 30 29 29 30 29 28 26 25 24 23 22 22 22 21 19 18 18 18 18 17 16 16 17 17 16 17 17 15 14 14 14 14 14 14 14 13 12 10 10 15 18 16 15 15 14 13 13 13 13 14 15 15 17 18 18 17 16 16 16 16 17 19 19 18 19 19 20 21 21 21 22 23 24 24 22 22 21 20 20 20
29 29 30 29 28 28 28 28 28 28 27 26 24 23 21 21 20 20 19 18 17 16 16 16 16 16 17 18 18 17 16 15 15 14 14 14 14 13 13 13 12 12 12 14 16 17 14 13 14 14 13 13 13 13 14 15 15 16 18 19 19 18 17 17 18 19 19 19 18 19 20 20 21 21 21 21 22 23 24 23 22 21 20 20 20
29 28 27 27 26 26 27 27 27 28 27 26 24 22 21 20 18 16 15 15 15 15 16 16 16 17 17 18 18 17 16 15 14 14 14 14 14 13 13 13 14 14 16 16 15 15 14 13 13 13 13 13 14 14 14 14 15 16 17 18 19 20 19 19 19 18 17 17 18 19 20 21 21 21 22 22 21 22 23 23 22 22 20 20 20
28 26 25 25 26 26 27 27 27 27 26 25 23 22 21 20 17 15 14 13 13 14 15 16 16 17 17 17 17 17 17 15 15 15 14 14 14 13 13 15 14 14 16 16 15 14 13 12 13 13 13 13 13 14 14 15 15 16 17 18 20 21 21 20 18 17 17 17 18 19 20 21 21 21 22 22 22 22 22 22 21 21 20 20 21
26 24 23 24 25 26 26 26 26 25 24 23 22 21 19 18 17 16 16 15 15 15 15 15 15 16 17 18 18 19 18 17 16 15 15 14 13 13 15 16 15 14 14 15 15 14 13 13 13 13 13 13 13 14 15 15 15 16 17 18 20 21 21 20 19 17 17 18 19 19 20 20 21 21 22 22 22 22 22 22 21 21 21 21 21
24 23 23 23 24 24 24 24 24 23 22 21 19 18 17 17 16 16 16 16 17 17 17 17 17 16 17 18 18 19 19 18 16 15 14 14 13 15 16 17 15 13 14 15 15 14 14 14 13 13 13 14 14 14 15 15 15 16 16 18 19 20 21 20 19 18 18 19 19 19 20 20 21 22 22 22 21 21 21 22 22 22 22 22 22
23 23 23 23 23 22 21 21 20 20 19 18 17 16 16 15 15 15 15 16 17 17 17 17 17 17 17 17 16 16 16 16 16 16 15 13 14 17 19 18 17 16 16 16 15 15 14 14 14 14 14 14 14 15 15 15 15 16 16 17 18 20 20 20 19 19 19 19 19 19 19 20 20 22 22 21 21 21 22 22 23 23 23 23 22
22 22 22 22 22 21 19 18 18 17 16 16 15 15 15 15 15 15 16 16 16 16 16 16 16 17 17 16 15 15 14 14 15 16 16 15 16 19 20 20 18 18 18 16 15 15 15 15 15 15 15 15 15 15 15 15 15 16 16 17 18 19 19 19 18 18 18 18 18 18 19 20 20 21 22 22 22 23 23 23 23 23 23 22 21
21 20 20 19 19 19 18 16 16 15 15 14 14 14 14 14 14 15 16 15 14 15 15 15 16 18 18 17 16 15 14 13 13 14 14 14 16 17 19 19 18 17 17 16 15 15 16 16 15 16 16 16 16 16 16 16 16 16 17 17 18 19 19 19 19 18 17 17 18 19 19 19 20 21 22 23 23 24 23 23 22 22 22 23 22
20 19 18 17 16 16 15 15 15 14 14 14 14 13 13 14 14 14 14 14 14 14 15 15 17 18 18 17 16 15 13 12 12 12 12 13 14 14 16 17 16 15 15 15 15 15 16 16 16 17 16 16 16 17 17 17 17 17 17 17 17 18 19 19 19 18 18 18 18 18 19 19 20 21 22 23 24 24 24 23 22 22 22 22 23
19 18 17 16 15 14 14 14 14 14 13 13 13 12 13 14 14 14 13 13 14 14 15 16 18 18 18 18 16 13 12 12 12 12 13 13 13 14 15 16 16 15 15 15 15 16 17 17 17 18 18 17 17 17 17 18 18 18 18 18 18 19 20 20 19 18 18 18 18 18 18 19 19 20 22 24 25 24 24 23 22 23 23 22 22
18 17 16 15 14 13 12 12 12 12 12 13 13 13 13 13 12 13 13 13 14 15 15 16 17 18 18 17 14 11 13 14 13 13 14 15 16 17 18 18 17 16 15 15 16 17 17 18 18 19 19 19 19 19 19 19 19 19 19 19 19 20 21 21 20 19 18 18 17 18 19 19 19 19 23 25 25 24 24 23 23 23 22 22 21
16 15 14 14 14 13 12 11 11 12 12 12 12 12 12 12 12 12 13 13 14 14 15 15 16 17 17 16 13 11 13 14 15 16 18 19 20 20 20 19 18 17 16 16 16 17 18 19 19 20 21 21 21 21 20 20 20 20 20 20 21 21 21 21 21 19 18 17 17 18 19 20 19 20 24 27 26 24 24 23 23 22 22 21 21
13 13 13 13 13 13 12 12 11 11 12 12 11 11 12 12 12 13 13 14 14 15 16 16 16 16 17 16 14 13 13 14 15 17 19 20 20 20 19 18 18 17 17 17 17 17 18 19 20 21 22 22 22 22 22 21 21 21 21 21 22 22 22 22 21 20 19 18 18 19 20 20 20 21 25 27 26 25 24 23 22 23 23 22 21
12 12 12 12 12 12 12 12 11 11 11 10 11 11 11 12 12 13 13 14 14 15 15 16 16 16 16 16 15 14 14 14 14 15 16 17 17 18 18 17 17 18 18 18 18 19 19 20 21 21 22 23 23 23 23 23 22 22 22 22 22 23 22 22 21 20 19 19 19 20 21 21 20 22 25 28 27 25 23 23 23 24 24 23 22
11 11 11 12 11 11 11 11 11 10 10 10 10 10 11 12 12 13 13 14 14 14 15 15 16 16 16 16 16 15 15 14 14 14 14 15 16 16 16 17 17 17 18 18 19 19 20 21 21 22 22 22 23 23 23 23 22 22 22 22 22 23 22 21 20 20 19 18 19 20 21 21 21 22 25 27 26 24 23 23 24 24 23 23 23
10 10 10 10 10 10 10 9 9 9 9 10 11 11 11 12 13 13 14 14 14 15 16 16 16 16 16 16 16 15 15 15 15 15 15 15 16 16 16 17 17 18 19 19 19 20 20 21 21 21 21 21 22 22 22 22 22 22 22 22 22 22 21 20 20 20 19 18 19 19 19 20 21 23 25 26 24 23 23 23 22 23 23 22 22
8 8 9 8 8 8 8 8 8 9 10 11 11 12 13 13 13 14 14 14 14 15 15 16 16 16 16 16 16 16 15 15 16 16 16 16 16 16 17 17 18 18 19 19 19 19 20 20 20 21 21 21 21 21 21 21 21 21 22 21 21 21 20 19 19 20 19 18 18 17 16 18 21 23 24 24 22 21 21 21 21 22 22 21 20
7 7 7 7 7 7 7 8 9 9 10 10 11 12 12 13 13 14 14 14 15 15 15 15 16 16 16 16 16 16 16 16 17 17 17 17 17 16 16 16 17 17 18 19 19 19 19 19 19 20 20 19 20 20 20 20 20 21 21 21 20 20 19 19 19 19 18 17 17 15 15 17 21 23 22 21 19 19 19 19 20 20 19 19 19
6 6 6 6 7 7 8 9 9 10 10 11 11 12 13 13 13 14 14 15 15 16 16 16 16 16 17 17 17 17 17 17 17 17 17 17 17 16 16 16 16 17 18 18 19 19 19 19 18 18 18 19 19 19 19 19 19 19 20 20 20 20 19 19 19 18 16 15 15 15 16 18 21 22 20 18 18 18 18 17 18 18 18 17 18
5 5 6 7 7 8 9 10 10 10 11 11 11 12 12 12 13 14 15 15 16 17 17 17 17 17 17 17 16 16 17 17 17 17 17 17 17 17 17 16 16 17 17 18 18 18 18 18 18 18 19 19 20 20 20 20 20 19 19 19 19 19 19 18 18 16 15 15 17 18 17 18 20 21 19 18 18 17 17 17 17 17 16 16 16
Wind_Direction
163 164 165 164 161 156 150 143 135 129 123 116 109 102 96 92 84 74 68 58 49 42 37 31 27 23 19 16 13 11 10 8 7 8 6 3 358 353 351 351 352 349 344 342 339 335 333 330 327 323 320 320 317 314 311 311 311 305 302 302 297 295 295 291 286 289 294 297 298 300 306 307 303 303 305 305 305 305 304 301 300 299 298 299 299
169 171 171 168 165 161 154 148 142 136 130 121 113 109 104 96 83 70 61 51 43 34 26 21 18 16 13 11 9 7 6 5 4 3 360 357 354 350 347 346 347 346 343 340 335 334 333 328 324 322 322 322 319 315 313 312 313 309 306 305 300 297 297 294 292 291 294 299 301 304 309 311 306 307 312 308 305 307 306 304 303 301 299 299 297
175 176 175 172 171 167 161 156 151 144 138 133 129 124 113 99 82 71 59 43 33 25 19 14 12 11 10 8 5 3 1 0 359 357 353 350 348 345 343 342 342 341 338 335 331 333 333 327 322 322 323 323 320 316 314 312 313 310 306 304 300 298 299 296 294 294 295 298 301 306 312 315 310 309 312 309 306 307 307 305 304 302 301 299 297
180 180 178 177 176 172 169 165 160 156 154 153 149 141 129 113 91 72 55 35 24 16 12 10 9 8 6 3 360 357 355 354 352 350 347 344 341 339 339 339 337 335 333 331 329 329 330 326 322 323 323 321 318 316 315 313 312 310 306 305 302 300 301 299 295 296 297 297 300 305 311 315 312 310 313 312 308 308 307 305 303 302 301 299 297
184 183 181 181 179 177 177 174 171 170 169 168 164 160 152 134 102 71 47 26 15 10 7 5 3 2 359 356 354 351 348 346 345 343 340 337 335 335 334 332 331 330 330 329 324 322 324 322 319 321 320 316 315 316 314 313 313 310 307 306 305 304 303 302 300 298 296 296 299 304 309 314 313 311 314 315 312 311 309 305 303 303 304 304 303
186 185 183 183 181 181 184 184 182 181 180 179 178 178 174 158 122 76 35 14 8 5 1 357 355 354 353 350 347 344 341 340 338 336 334 332 331 330 327 325 324 325 327 325 320 320 321 317 316 315 312 310 310 311 312 312 311 309 308 309 309 309 308 307 306 303 299 297 299 303 308 313 315 313 315 316 314 314 313 309 307 307 310 310 308
188 186 183 183 183 186 190 191 190 188 187 189 189 189 188 182 166 78 11 4 0 356 351 348 346 346 346 344 341 338 336 334 333 330 328 326 324 321 319 319 319 319 323 323 319 317 315 313 315 313 307 304 304 306 310 311 309 308 308 310 311 311 310 308 307 305 302 300 300 302 306 310 312 312 313 313 311 309 311 311 310 311 311 308 306
189 187 184 183 187 191 195 196 195 193 194 196 197 199 198 195 196 270 346 350 350 347 343 339 338 338 339 338 335 332 329 328 326 323 321 319 317 317 316 316 317 316 319 321 317 313 312 311 311 307 300 297 300 304 307 305 305 305 304 306 308 308 307 306 305 305 303 300 300 301 303 306 309 310 310 311 310 308 311 311 308 309 309 306 305
189 188 187 187 191 196 199 200 198 198 199 201 203 205 204 204 214 266 317 335 339 338 335 332 331 331 333 332 328 326 322 320 319 317 317 315 313 315 314 312 314 313 314 316 314 310 309 305 299 296 298 302 306 308 304 297 296 297 299 302 303 303 302 301 301 302 300 299 298 301 302 303 308 311 309 309 308 307 309 308 305 307 309 307 306
188 190 190 190 195 200 203 203 201 201 202 205 208 209 209 212 228 259 292 316 327 330 327 325 324 322 324 324 321 319 315 313 313 311 311 311 310 311 309 307 310 310 307 309 310 307 304 301 296 297 303 307 309 307 300 294 292 291 292 294 295 297 298 298 297 298 298 297 297 300 302 301 304 306 304 303 303 304 306 306 305 308 309 306 306
190 191 190 193 200 203 205 206 205 204 205 208 211 211 213 221 233 251 278 303 314 317 315 314 315 314 315 315 313 311 308 306 307 306 306 306 304 303 303 304 307 307 303 302 303 302 301 301 301 303 305 305 303 301 299 297 294 293 291 289 289 290 291 292 293 294 293 292 292 295 296 296 298 299 298 299 300 300 302 303 303 304 305 304 306
192 193 193 198 204 205 207 208 207 207 208 210 213 213 219 227 234 247 268 288 296 300 302 302 304 306 307 308 306 304 303 302 301 301 302 302 300 297 298 300 301 300 296 295 296 298 298 299 301 304 303 300 298 299 300 298 296 296 295 293 290 287 286 287 289 290 289 288 288 290 291 291 293 293 293 294 295 297 297 296 295 296 296 296 297
194 195 198 203 206 207 210 211 209 209 210 211 214 216 223 230 235 244 259 273 280 285 289 293 297 299 300 302 301 300 300 299 298 299 299 300 297 293 293 295 294 291 287 288 291 293 294 297 299 300 300 298 298 298 299 299 299 298 297 295 292 290 288 288 288 286 286 286 284 283 284 285 286 286 287 288 291 293 292 290 289 289 287 286 287
196 199 202 206 208 210 213 212 210 210 211 213 216 219 225 231 234 240 252 261 267 274 281 287 292 294 296 298 298 299 300 297 296 297 298 299 297 292 290 289 287 285 284 286 289 287 289 292 294 295 297 297 297 297 298 299 299 298 296 292 289 288 289 293 292 286 281 280 278 278 280 281 280 280 281 283 284 284 284 285 286 285 284 286 289
199 202 204 207 210 213 214 212 210 211 213 214 217 221 226 230 233 238 247 254 262 271 279 285 289 291 295 296 296 298 300 297 295 296 298 299 296 290 287 286 286 287 287 288 288 285 284 287 287 290 293 293 295 297 297 298 298 297 294 290 288 288 288 292 292 284 277 274 271 272 274 274 274 275 278 279 278 278 281 285 287 289 291 293 293
201 204 206 209 213 215 214 211 211 213 214 216 218 222 227 230 231 236 244 252 261 271 278 284 289 291 294 295 295 298 300 297 295 296 299 299 294 288 288 289 290 290 286 285 285 280 278 282 284 286 288 290 294 296 296 297 296 295 293 292 292 291 289 289 288 284 283 284 281 277 277 278 279 281 283 284 284 285 288 290 292 295 296 294 293
203 205 209 213 216 216 214 212 214 215 215 217 220 223 227 229 231 236 243 253 263 270 277 282 286 290 294 295 296 298 301 298 296 297 299 298 293 290 290 291 289 285 281 280 282 279 277 279 282 285 287 290 294 298 299 300 298 297 296 295 294 291 288 290 290 287 289 294 294 291 290 291 291 291 292 292 292 294 297 296 297 297 294 291 291
207 209 213 216 217 216 215 215 217 217 217 219 222 225 227 228 231 237 244 254 262 270 277 280 284 289 293 296 296 298 300 300 297 298 300 298 292 289 288 286 281 280 282 282 283 282 282 282 283 286 288 291 295 300 303 304 303 301 299 297 294 293 293 295 297 294 294 297 297 295 295 296 295 294 294 292 290 292 292 291 291 291 286 284 287
212 213 216 217 218 218 217 218 219 219 220 222 223 225 228 229 231 238 244 252 261 268 274 278 283 289 293 296 297 297 300 301 300 299 299 297 292 288 284 281 279 280 284 287 289 288 287 288 289 289 291 295 300 304 306 307 306 304 303 301 300 302 304 305 305 305 304 302 299 296 295 294 291 290 289 286 285 285 285 284 286 285 282 282 283
216 216 217 218 219 219 219 220 220 220 222 223 223 225 228 229 232 237 242 250 258 265 271 278 284 289 294 297 297 297 299 302 302 300 298 296 291 283 275 274 277 282 286 290 293 294 294 294 293 293 298 302 305 308 309 308 307 307 308 307 305 305 307 308 308 307 307 304 300 297 294 292 290 288 286 284 283 283 282 282 282 281 283 284 283
217 217 217 219 220 220 220 221 221 221 222 223 223 226 227 229 233 236 241 248 255 263 272 279 285 289 293 295 296 298 299 300 300 299 297 295 290 276 266 267 273 282 287 289 293 295 297 297 297 300 305 308 309 310 310 310 310 309 308 305 303 304 307 309 308 306 305 303 300 297 294 292 291 289 286 284 284 283 281 280 278 278 281 282 282
218 217 217 219 220 220 221 222 221 221 221 221 223 225 227 230 233 235 239 247 254 262 271 278 284 289 293 294 295 296 296 297 299 298 296 293 287 271 260 264 273 281 286 290 292 293 295 299 304 306 308 309 310 312 312 312 312 310 307 306 307 309 310 309 307 306 305 303 301 298 295 295 294 292 290 289 287 286 284 282 280 279 279 277 278
219 217 217 219 220 221 221 221 220 219 220 221 223 225 227 230 233 234 238 246 253 261 270 277 282 287 291 293 295 296 295 294 294 295 296 294 285 268 261 266 274 280 284 287 288 290 296 305 307 307 308 311 312 313 313 314 313 311 312 314 315 316 315 311 309 308 307 304 302 299 297 298 298 296 295 295 294 292 290 288 285 283 281 279 277
218 217 218 220 221 221 221 221 220 219 220 221 222 224 227 230 231 234 239 244 252 261 269 275 279 283 288 292 295 296 295 293 292 294 298 294 280 267 264 268 275 280 283 283 285 292 301 303 303 306 309 311 312 312 314 317 318 317 318 321 324 325 323 318 315 313 309 306 303 300 299 301 301 299 299 299 298 296 293 291 288 286 284 282 281
218 219 220 221 221 222 221 219 219 219 220 221 222 223 227 229 230 235 240 244 251 257 262 267 271 275 279 284 289 291 290 290 292 294 296 289 271 261 264 271 278 283 283 281 284 294 300 300 302 307 310 311 312 313 317 322 324 321 321 325 331 333 328 321 316 313 310 307 305 302 302 303 302 301 302 301 299 297 295 293 292 291 289 288 287
219 220 221 221 222 221 219 218 218 219 219 221 221 224 228 229 230 235 240 244 249 254 258 260 263 268 273 277 281 282 279 279 284 289 293 288 272 263 267 274 281 284 281 279 284 293 297 299 303 307 308 310 311 310 312 317 321 324 327 329 332 333 328 319 315 312 308 306 305 303 303 305 305 304 305 304 301 300 300 299 298 297 296 295 292
222 221 221 220 220 219 218 218 218 217 218 220 221 224 227 229 230 233 237 243 247 251 255 256 256 261 267 270 272 271 269 270 274 278 280 269 259 263 269 278 288 287 277 278 288 295 297 299 303 307 311 314 315 314 313 318 324 329 332 333 331 328 323 316 311 308 306 305 306 306 305 307 308 308 308 308 304 303 305 304 302 300 300 299 295
224 223 221 219 219 219 218 217 218 218 219 220 222 224 227 229 232 236 240 245 249 250 251 252 253 257 259 259 258 258 256 257 260 264 261 245 246 265 275 281 291 285 272 280 294 296 297 302 307 312 316 318 321 323 322 323 326 329 332 334 330 323 320 317 312 308 307 306 306 308 309 310 310 310 310 309 307 308 310 308 305 304 305 303 298
225 224 222 220 219 220 218 218 218 219 221 223 224 227 231 235 239 243 247 250 252 253 253 253 255 257 254 249 246 245 248 254 258 259 255 246 252 270 277 279 285 282 274 284 296 296 300 306 309 311 313 314 316 319 319 322 326 329 333 334 330 323 322 320 316 312 312 312 310 310 311 312 312 312 312 311 310 311 312 311 309 307 306 303 299
223 223 222 221 221 220 219 218 218 218 221 225 226 229 234 239 243 247 251 253 253 254 256 256 256 257 254 252 254 257 261 267 268 261 254 253 260 270 276 279 282 280 275 280 290 296 303 306 304 304 307 308 310 313 316 319 324 327 330 331 329 326 323 319 318 316 315 314 311 308 309 311 312 314 315 313 312 312 312 311 310 307 305 302 300
222 222 222 222 222 221 219 219 218 218 221 225 227 229 234 240 244 248 252 255 254 253 256 257 255 254 254 260 270 274 268 265 264 260 256 259 264 269 275 279 277 269 263 275 289 295 297 295 295 299 302 302 305 309 312 315 320 324 327 327 327 327 323 318 318 318 316 313 309 307 310 312 312 313 314 313 312 312 312 312 310 307 304 302 301
224 224 224 223 221 220 220 220 220 220 221 224 227 229 232 238 246 252 255 257 256 255 255 254 250 246 246 253 263 267 261 256 256 257 258 261 263 266 272 274 265 255 259 276 289 291 286 283 287 293 296 298 302 306 309 313 318 322 323 323 323 324 321 318 318 318 315 312 310 311 313 313 312 312 312 312 312 311 310 311 310 307 305 302 300
227 226 226 222 220 219 220 220 221 221 221 223 226 228 231 235 241 248 252 254 255 254 251 249 247 246 245 246 249 253 255 254 254 257 259 260 262 265 267 262 255 256 266 277 283 282 277 277 282 287 292 295 299 304 307 310 316 322 323 320 318 318 317 317 319 317 312 311 311 313 314 314 314 314 313 312 312 310 308 308 308 307 306 304 302
227 226 226 224 222 221 221 220 220 221 222 223 226 228 232 235 236 237 239 244 251 254 251 248 246 246 246 247 245 246 250 253 257 259 259 259 261 262 258 252 253 262 273 277 276 272 271 273 277 283 290 294 297 300 304 308 316 322 322 318 316 316 316 319 320 315 311 312 313 312 313 315 315 315 314 313 313 310 308 307 308 307 307 305 304
226 224 225 225 223 221 221 221 220 220 220 223 225 228 232 235 238 240 242 243 245 248 251 252 251 247 246 247 248 249 252 256 259 258 256 258 260 254 247 248 256 264 269 271 272 270 269 271 277 284 289 292 295 297 301 307 316 319 318 317 317 317 317 317 317 314 311 312 313 312 314 315 315 315 315 314 313 311 310 309 309 308 306 305 305
222 220 220 220 218 218 220 220 219 219 220 222 226 229 232 236 240 244 247 249 248 249 253 258 260 259 256 255 256 256 255 255 255 253 253 256 253 244 241 247 255 256 257 260 265 268 270 274 280 285 288 291 295 297 299 305 312 315 315 314 314 315 315 314 313 311 309 309 311 312 314 315 316 318 318 315 313 313 310 308 309 308 306 307 307
217 216 216 216 214 214 216 216 217 219 221 223 226 230 233 237 240 243 246 248 250 253 256 260 264 266 267 267 265 260 254 252 251 250 250 249 243 240 243 249 253 253 254 257 260 264 271 276 280 284 289 292 295 297 298 303 310 313 314 313 313 313 313 310 307 306 306 306 309 312 313 314 316 318 319 317 315 315 313 311 311 310 310 310 310
213 212 213 213 211 210 211 213 215 218 220 223 226 230 233 238 242 243 245 247 249 253 258 262 265 267 268 270 270 268 265 260 255 252 247 238 236 241 247 250 252 253 254 256 259 264 271 276 280 284 289 293 295 296 298 303 308 310 310 312 314 314 312 308 307 307 305 304 307 309 311 313 315 318 320 317 314 314 315 315 314 313 313 313 312
207 207 210 211 210 211 213 215 217 219 220 223 227 230 233 237 240 242 245 248 250 254 258 261 263 266 269 270 271 273 274 268 257 252 243 232 232 242 246 246 248 252 255 259 263 268 272 277 280 284 288 292 295 297 298 302 307 309 309 311 312 313 311 310 309 308 305 303 305 308 310 311 314 318 320 318 316 315 315 315 315 314 314 313 312
202 203 205 207 208 212 216 218 219 221 221 224 227 229 232 236 239 242 246 249 252 255 258 259 261 267 272 274 274 275 273 262 250 244 236 228 230 240 244 244 248 254 259 263 268 271 274 278 280 283 287 290 294 297 299 302 306 308 309 308 307 307 309 308 306 305 303 302 303 306 309 311 313 317 320 320 319 317 316 315 315 315 313 312 312
200 201 204 206 208 212 216 217 219 221 222 224 226 228 233 238 241 243 246 248 251 255 258 260 264 270 275 277 276 271 262 255 248 243 238 235 235 239 246 253 260 263 264 267 270 272 275 277 280 282 286 289 292 295 298 300 302 304 305 305 303 303 305 307 305 303 301 300 301 304 308 310 312 316 319 321 321 319 318 316 315 316 314 312 311
199 202 204 203 203 206 210 213 215 217 219 223 225 228 233 239 242 245 249 251 254 258 261 264 270 277 280 280 277 264 252 251 250 245 242 242 245 251 258 266 270 270 269 269 271 272 274 277 280 283 286 289 292 294 294 296 298 299 300 301 301 301 302 303 304 303 300 299 299 302 307 309 310 313 319 323 322 321 319 317 316 317 317 315 315
202 203 203 201 200 202 204 207 210 214 219 223 227 231 235 240 243 248 253 255 257 261 264 267 273 278 280 280 277 263 250 246 244 243 245 250 256 262 267 270 272 272 271 270 270 271 273 276 279 282 285 287 290 291 292 293 294 295 296 298 299 299 299 300 301 300 298 297 297 302 308 310 308 312 320 325 324 321 319 318 318 319 319 318 318
203 203 203 202 203 205 207 209 212 217 222 227 232 237 242 247 250 252 255 257 259 263 266 269 272 276 279 281 280 271 261 253 248 248 253 258 262 265 267 268 270 272 272 271 272 272 273 275 277 280 282 285 287 288 290 291 292 293 294 296 296 296 296 297 297 297 295 293 293 299 308 311 308 309 318 325 325 321 319 318 319 319 320 320 320
204 204 205 205 206 209 212 215 218 222 226 232 238 243 248 251 252 252 253 257 261 264 267 270 273 275 277 279 280 278 276 271 265 261 261 263 264 265 266 267 269 270 271 272 273 274 274 276 277 279 281 283 285 287 289 290 292 293 294 294 294 294 295 296 297 296 294 290 289 295 306 312 308 307 315 322 324 320 317 317 318 319 320 320 319
206 206 205 207 209 212 216 219 223 227 231 235 239 244 247 249 251 253 255 258 261 263 267 271 273 275 277 279 279 279 279 278 276 273 271 268 268 268 268 269 270 271 272 273 274 275 276 277 279 280 281 283 284 286 287 290 292 293 293 293 293 293 295 297 297 295 292 289 287 291 302 310 308 305 312 320 323 321 318 318 319 321 322 322 321
205 205 205 208 210 212 217 222 227 231 235 239 242 245 247 250 254 258 261 263 264 264 266 269 271 273 276 278 279 280 280 280 279 278 275 273 273 273 273 274 274 274 275 275 275 277 278 279 280 281 282 282 283 285 287 289 290 291 292 293 294 295 297 298 296 293 292 290 285 285 297 308 308 306 311 319 323 323 322 321 322 324 325 325 325
197 198 201 205 208 212 221 229 233 237 243 247 249 251 252 254 257 260 264 267 268 267 268 270 271 273 275 276 278 280 280 280 280 278 277 277 277 277 276 276 276 276 277 277 278 279 280 281 282 282 282 283 285 286 288 289 290 290 291 292 294 296 297 296 293 292 292 289 282 281 293 304 304 304 311 318 323 324 325 324 326 328 329 330 331
186 191 197 206 213 221 232 240 244 247 250 251 253 256 259 260 261 263 266 268 269 269 270 271 272 273 275 277 279 281 280 280 279 279 279 280 280 279 279 279 278 278 278 279 281 283 283 283 283 283 284 285 287 288 290 291 291 291 292 292 292 294 295 294 292 292 289 284 279 280 291 300 301 303 311 319 323 326 327 328 330 333 335 336 337
186 195 207 218 227 234 242 246 248 249 250 250 254 259 261 263 266 268 269 269 269 270 271 272 273 274 276 278 279 280 280 280 280 280 280 281 282 283 284 283 282 281 282 282 283 283 283 282 283 285 286 288 290 290 292 293 294 294 294 293 292 292 293 292 291 289 285 282 282 284 289 295 298 302 310 318 323 326 328 330 334 340 342 342 343
195 205 216 226 233 238 243 245 247 248 249 251 254 257 261 266 272 275 276 276 276 276 276 276 276 277 277 277 279 280 280 280 281 281 281 282 284 284 285 285 284 284 283 282 281 281 283 284 287 289 290 291 292 292 293 294 295 296 297 295 293 292 293 293 293 292 288 286 283 281 282 290 297 301 307 313 318 323 326 328 334 341 345 347 349